Regional Weather Roundup
Issued by NWS

Home | Current Version | Previous Version | Text Only | Print | Product List | Glossary On
Versions: 1 2 3 4 5 6 7 8 9 10 11 12 13 14 15 16 17 18 19 20 21 22 23 24 25 26 27 28 29 30 31 32 33 34 35 36 37 38 39 40 41 42 43 44 45 46 47 48 49 50
000
ASUS43 KDTX 281910
RWRMI
MICHIGAN HOURLY REGIONAL WEATHER ROUNDUP
NATIONAL WEATHER SERVICE DETROIT/PONTIAC MI
300 PM EDT SAT MAY 28 2016

NOTE: "FAIR" INDICATES FEW OR NO CLOUDS BELOW 12,000 FEET WITH NO
SIGNIFICANT WEATHER AND/OR OBSTRUCTION TO VISIBILITY.

MIZ047>049-052>055-059>063-066>070-074>076-081>083-282000-
SOUTHEAST LOWER MICHIGAN

CITY           SKY/WX    TMP DP  RH WIND       PRES   REMARKS
ADRIAN         SUNNY     86  56  35 W12G25    30.03F
ALMA           MOSUNNY   80  66  61 SW18G31   29.98F
ANN ARBOR      MOSUNNY   86  63  45 S15G21    30.01F
BAD AXE        PTSUNNY   82  68  62 S15G23    30.00R
CARO           CLOUDY    85  62  46 SW15G25   29.99F
DETROIT CITY   MOSUNNY   86  68  54 SW10      30.01F
DETROIT        PTSUNNY   86  67  52 S12G20    30.01F
FLINT          CLOUDY    87  61  41 SW21G28   29.99F
GROSSE ILE     SUNNY     81  68  65 SE10      30.00F
HILLSDALE      CLOUDY    82  54  38 S15G23    30.03F
HOWELL         PTSUNNY   83  56  38 SW16G24   30.01S

CITY           SKY/WX    TMP DP  RH WIND       PRES   REMARKS
JACKSON        CLOUDY    80  61  52 SW13G21   30.01F
LAMBERTVILLE   MOSUNNY   88  62  41 W10G18    30.02F
LANSING        CLOUDY    83  68  60 S13G21    29.99F
LAPEER         PTSUNNY   84  61  44 SW15G21   30.00F
MASON          CLOUDY    79  64  61 S8        30.01S
MONROE         PTSUNNY   85  67  54 SW10G18   30.01S
MT. CLEMENS    MOSUNNY   82  69  63 SE15      30.00F
PONTIAC        PTSUNNY   86  62  44 S12G21    30.00F
PORT HOPE        N/A     77  67  71 S12G22    29.99R
PORT HURON     SUNNY     84  66  54 S13G20    30.02S
TRI CITIES     MOSUNNY   84  61  45 S14G24    29.97F
MIDLAND        FAIR      83  64  53 SW10G17   29.96F
TROY           MOSUNNY   88  65  47 S9G16     30.02F
SAGINAW HB     CLOUDY    84  59  42 S21       29.97F
$$
MIZ043>046-050>051-056>058-064>065-071>073-077>080-282000-
SOUTHWEST LOWER MICHIGAN

CITY           SKY/WX    TMP DP  RH WIND       PRES   REMARKS
BENTON HARBOR  PTSUNNY   78  64  61 S15G22    29.96S
BIG RAPIDS     MOSUNNY   79  66  65 S13G20    29.95F
COLDWATER      CLOUDY    83  60  45 S10G21    30.00F
FREMONT        PTSUNNY   81  65  59 SW24      29.95S
HOLLAND        MOSUNNY   81  65  58 SW15      29.95F
GRAND RAPIDS   CLOUDY    82  64  54 S16G22    29.97F
IONIA          PTSUNNY   82  62  51 S16G26    29.98S
KALAMAZOO      CLOUDY    82  61  48 S16G23    29.98F
LUDINGTON      MOSUNNY   77  65  66 S20G29    29.93R
MARSHALL       PTSUNNY   84  62  46 SW15G23   29.99F
MOUNT PLEASANT CLOUDY    81  66  60 S12G23    29.96F
MUSKEGON       CLOUDY    79  64  60 S16G29    29.95S
SOUTH HAVEN    CLOUDY    80  63  57 S14G22    29.95F
$$
MIZ016>042-282000-
NORTHERN LOWER MICHIGAN

CITY           SKY/WX    TMP DP  RH WIND       PRES   REMARKS
ALPENA         PTSUNNY   85  63  47 S13G21    29.93F
BEAVER ISLAND  MOSUNNY   75  64  68 SW17G23   29.90S
BELLAIRE       PTSUNNY   81  64  56 S8        29.89F
CADILLAC       PTSUNNY   80  62  54 S18G30    29.94F
CHARLEVOIX     CLOUDY    78  64  62 SW13G22   29.93R
FRANKFORT      CLOUDY    74  65  72 SW17G30   29.90S
GAYLORD        PTSUNNY   80  62  54 S16G26    29.93F
GRAYLING       PTSUNNY   82  63  52 SW15G22   29.95F
HARBOR SPRINGS CLOUDY    78  64  62 SW8       29.91S
HOUGHTON LAKE  CLOUDY    79  62  56 S21G31    29.97S
MANISTEE       PTSUNNY   79  64  61 SW10G23   29.92R
OSCODA         CLOUDY    87  61  41 S16G26    29.95F
PELLSTON       PTSUNNY   81  63  54 S15G29    29.91S
ROGERS CITY    MOSUNNY   83  64  51 S13G20    29.91F
TRAVERSE CITY  PTSUNNY   82  63  52 SW12G25   29.87F
$$
MIZ007>008-015-282000-
EASTERN UPPER MICHIGAN

CITY           SKY/WX    TMP DP  RH WIND       PRES   REMARKS
KINROSS          N/A     72  70  94 NW5       29.90F
MACKINAC ISLAN CLOUDY    65  62  90 NE3       29.90S
NEWBERRY       CLOUDY    70  65  85 S13G24    29.89S
S. S. MARIE    HVY RAIN  69  66  90 E5        29.91S VSB 3/4
MUNISING         N/A     75  66  73 S12G22    29.80F
$$
MIZ004>006-011>014-085-282000-
CENTRAL UPPER MICHIGAN

CITY           SKY/WX    TMP DP  RH WIND       PRES   REMARKS
MANISTIQUE     CLOUDY    60  58  90 SW8       29.88S
ESCANABA       CLOUDY    64  57  77 S10       29.83S
MENOMINEE      PTSUNNY   75  66  73 S8        29.82S
SAWYER-GWINN   CLOUDY    72  64  78 S15       29.81F
$$
MIZ001>003-009>011-084-282000-
WESTERN UPPER MICHIGAN

CITY           SKY/WX    TMP DP  RH WIND       PRES   REMARKS
IRON MOUNTAIN  PTSUNNY   72  67  84 SE10      29.77F
HOUGHTON       LGT RAIN  65  62  90 E6        29.78F
COPPER HARBOR    N/A     64  62  93 VRB5      29.78F
IRONWOOD       CLOUDY    64  64 100 N5        29.74R
$$

ABBREVIATIONS USED IN REMARKS
   TC - TEMPERATURE IN CELSIUS
  WCI - WIND CHILL INDEX
   HX - HEAT INDEX
  VSB - VISIBILITY





USA.gov is the U.S. government's official web portal to all federal, state and local government web resources and services.